Location: Hengforden
(52.3167°N, 6.1333°E)
Time: 16:07:22
(UTC+00:00)

Cosmos 1437 Rocket - Pass Details

Date: 14 June 2025
Orbit: 456 x 498 km, 81.2° (Epoch: 19 July)

Event Time Altitude Azimuth Distance (km) Brightness Sun altitude
Exits shadow 21:55:06 - 210° (SSW) 2,008 5.3 -11.2°
Reaches altitude 10° 21:56:04 10° 214° (SSW) 1,616 4.9 -11.3°
Maximum altitude 21:59:29 45° 288° (WNW) 656 3.5 -11.5°
Drops below altitude 10° 22:02:57 10° 2° (N) 1,653 6.4 -11.7°
Sets 22:05:09 0° 9° (N) 2,545 7.3 -11.8°
